SCP
0 0 0 0 0 0 0 0 0 0 0 0 0 0 0 0 0 0 0 0 0 0 0 0 0 0 0 0 0 0 0 0 0 0 0 0 0 0 0 0 -0 -0 0 0
0 0 0 0 0 0 0 0 0 0 0 0 0 0 0 0 0 0 0 0 0 0 0 0 0 0 0 0 0 0 0 0 0 0 0 0 0 0 0 0 0 -0 -0 0
0 0 0 0 0 0 0 0 0 0 0 0 0 0 0 0 0 -0 0 0 0 0 0 0 0 0 0 0 0 0 0 0 0 0 0 0 0 0 0 0 0 0 -0 0
0 0 0 0 0 0 0 0 0 0 0 0 0 0 -0 0 0 0 0 0 0 0 0 0 0 0 0 0 0 0 0 0 0 0 0 0 0 0 0 0 0 -0 0 -0
0 0 0 0 0 0 0 0 0 0 0 0 0 0 0 0 -0 -0 -0 0 0 0 0 0 0 0 0 0 0 0 0 0 0 0 0 0 0 0 0 0 0 0 0 0
0 0 0 0 0 0 0 0 0 0 0 0 0 0 0 -0 -0 0 -0 0 0 0 0 0 0 0 0 0 0 0 0 0 0 0 0 0 0 0 0 0 0 0 0 0
0 0 0 0 0 0 0 0 0 0 0 0 0 0 -0 -0 -0 -0 -0 -0 0 0 0 0 0 0 0 0 0 0 0 0 0 0 0 0 0 0 0 0 0 0 0 0
0 0 0 0 0 0 0 0 0 0 0 0 0 0 0 -0 -0 -0 -0 -0 0 0 0 0 0 0 0 0 0 0 -0 0 0 0 0 0 0 0 0 0 0 0 0 0
0 0 0 0 0 0 0 0 0 0 0 0 0 0 0 -0 -0 -0 0 -0 -0 0 0 0 0 0 0 0 0 -0 0 0 0 0 0 0 0 0 0 0 0 0 0 0
0 0 0 0 0 0 0 0 0 0 0 0 0 0 0 0 0 0 -0 0 0 -0 0 0 0 0 0 0 0 -0 -0 -0 0 0 0 0 0 0 0 0 0 0 0 0
0 0 0 0 0 0 0 0 0 0 0 0 0 0 0 0 0 0 -0 0 0 -0 0 0 0 0 0 0 0 0 0 0 -0 0 0 0 0 0 0 0 0 0 0 0
0 0 0 0 0 0 0 0 0 0 0 0 0 0 0 0 -0 0 0 -0 0 0 -0 0 0 0 0 0 0 0 0 0 0 0 0 0 0 0 0 0 0 0 0 0
0 0 0 0 0 0 0 0 0 0 0 0 0 0 0 0 0 0 0 0 0 -0 0 0 -0 -0 0 0 0 0 0 0 0 0 0 0 0 0 0 0 0 0 0 0
0 0 0 0 0 0 0 0 0 0 0 0 0 0 0 0 0 0 -0 -0 -0 -0 -0 0 0 -0 -0 -0 -0 -0 0 0 0 0 0 0 0 0 0 0 0 0 0 0
0 0 0 0 -0 0 0 0 0 0 0 0 0 0 0 0 0 0 0 0 0 0 0 0 0 0 -0 -0 -0 0 -0 -0 0 0 0 0 0 0 0 0 0 0 0 0
0 0 0 0 0 0 0 0 0 0 0 0 0 0 0 0 0 0 0 0 0 0 0 0 0 -0 0 0 -0 -0 0 -0 -0 -0 0 0 0 0 0 0 0 0 0 0
0 0 0 0 0 0 0 0 0 0 0 0 0 0 0 0 0 0 0 0 0 0 0 0 0 0 0 0 -0 -0 0 -0 -0 -0 0 0 0 -0 0 0 0 0 0 -0
0 0 0 0 0 0 0 0 0 0 0 0 0 0 0 0 0 0 0 0 0 0 0 0 0 0 0 0 -0 -0 0 -0 -0 -0 0 0 0 0 0 0 0 0 0 0
0 0 0 0 0 0 0 0 0 0 0 0 0 0 0 0 0 0 0 0 0 0 0 0 0 0 0 0 -0 0 0 -0 -0 -0 0 0 0 0 0 0 0 0 0 0
0 0 0 0 0 0 0 0 0 0 0 0 0 0 0 0 0 0 0 0 0 0 0 0 0 0 0 -0 0 -0 0 0 0 0 0 0 0 0 0 0 0 0 -0 0
0 0 0 0 0 0 0 0 0 0 0 0 0 0 0 0 0 0 0 0 0 0 0 0 0 0 0 -0 -0 -0 -0 -0 0 0 0 0 0 0 0 0 0 0 0 0
0 0 0 0 0 0 0 0 0 0 0 0 0 0 0 0 0 0 0 0 0 0 0 0 0 0 0 0 -0 -0 -0 -0 -0 0 0 0 0 0 0 0 0 0 0 0
0 0 0 0 0 0 0 0 0 0 0 0 0 0 0 0 0 0 0 0 0 0 0 0 0 0 0 0 0 -0 -0 -0 -0 -0 -0 -0 0 0 0 0 0 0 0 0
0 0 0 0 0 0 0 0 0 0 0 0 0 0 0 0 0 0 0 0 0 0 0 0 0 0 0 0 0 0 0 0 -0 0 0 0 -0 -0 0 0 -0 -0 -0 0
-0 -0 -0 0 0 0 0 0 0 0 0 0 0 0 0 0 0 0 0 0 -0 0 0 0 0 0 0 0 0 0 0 0 0 0 0 0 0 -0 -0 -0 -0 -0 -0 -0
0 -0 -0 0 -0 0 0 0 0 0 0 0 0 0 0 0 -0 -0 -0 -0 0 0 0 0 0 0 0 0 -0 -0 -0 0 0 -0 -0 -0 -0 0 0 -0 -0 0 -0 -0
-0 0 0 0 0 0 0 0 0 0 -0 0 0 0 0 0 0 0 0 0 0 0 0 0 0 0 -0 -0 -0 -0 0 0 0 0 -0 0 0 0 0 -0 0 -0 0 0
Wind_Speed_500mb
50 52 55 57 60 62 45 28 12 33 33 9 9 13 22 24 30 31 33 20 29 31 23 20 8 8 16 18 13 27 30 20 25 52 39 51 56 48 57 27 45 38 29 16
49 50 51 52 53 54 40 29 16 25 30 11 14 18 21 20 21 20 21 19 26 26 30 10 7 2 7 24 18 1 8 27 29 29 41 46 56 56 50 49 32 42 34 11
48 49 49 49 45 45 31 19 10 15 12 13 22 25 22 23 23 6 25 11 33 30 32 21 6 4 8 17 18 18 13 23 45 37 34 38 55 59 56 56 40 37 37 32
50 49 46 44 41 38 22 10 9 9 13 18 25 25 28 20 13 22 28 6 14 16 15 27 27 10 21 5 17 10 12 28 14 27 2 9 28 55 60 61 55 51 38 42
51 51 48 43 40 35 12 14 10 10 31 20 22 16 20 22 23 22 19 12 29 20 8 19 16 18 14 10 12 13 13 9 12 29 19 15 19 25 31 51 57 54 52 45
54 53 50 44 35 34 13 11 14 10 16 18 17 14 19 29 27 14 14 28 31 27 18 26 37 36 35 30 22 15 12 10 13 29 25 20 30 44 41 37 36 36 46 34
59 57 54 49 36 37 32 22 17 11 11 12 21 29 34 26 27 25 36 33 30 24 31 45 43 44 39 31 26 23 15 15 15 12 13 33 23 20 50 48 40 40 35 31
64 61 57 54 47 41 38 43 23 12 7 16 30 23 23 29 30 26 30 27 20 20 35 20 17 16 15 28 31 28 26 18 15 22 27 21 12 9 15 20 33 34 36 27
65 63 61 57 52 46 42 43 53 23 7 12 15 28 26 22 22 23 9 12 25 19 14 14 14 6 9 7 15 26 27 24 19 15 33 37 8 37 17 11 21 23 10 17
65 63 61 59 53 45 46 48 43 33 13 28 31 14 16 12 14 13 14 13 8 7 9 13 13 16 5 11 16 22 25 24 29 27 25 18 22 13 5 25 10 15 2 8
65 64 63 57 57 52 40 50 41 44 21 39 43 38 32 30 23 13 8 16 8 12 11 7 8 16 8 13 21 9 21 20 22 30 35 44 23 24 29 21 22 27 27 29
64 65 64 60 63 44 34 38 39 33 51 29 31 39 46 46 44 39 13 18 9 7 4 7 6 11 10 16 19 14 26 24 21 22 23 24 21 30 35 35 43 42 49 42
64 64 63 66 45 34 26 28 26 31 29 39 40 18 20 28 38 39 27 21 32 33 18 9 7 13 15 18 21 31 34 36 27 30 37 45 47 46 54 51 53 59 56 63
62 62 70 58 28 25 17 18 19 23 8 7 13 12 17 17 23 32 47 48 13 19 17 12 11 11 20 19 26 28 28 25 35 43 45 56 64 51 61 71 62 67 71 69
60 65 64 27 17 17 7 11 12 10 15 7 20 42 6 6 24 39 37 47 50 33 11 12 10 28 21 27 29 36 43 48 35 36 39 38 46 48 45 51 52 49 56 64
67 67 29 12 18 12 6 5 3 4 6 8 6 12 7 8 6 20 32 42 42 39 14 13 21 44 12 9 22 38 63 77 75 54 76 76 62 56 59 64 63 67 62 63
66 41 11 18 22 20 8 4 15 16 2 5 8 8 6 14 15 14 25 32 24 25 10 12 11 9 16 8 30 65 64 69 72 68 65 71 74 73 62 60 65 64 63 68
47 21 10 11 22 23 20 14 13 8 4 4 6 8 10 8 9 6 17 11 22 13 11 8 6 6 12 11 43 76 77 76 80 81 84 77 73 71 68 63 62 59 63 59
23 12 10 11 13 12 13 15 14 6 6 4 4 6 7 14 9 8 10 11 5 8 6 5 4 2 8 35 69 58 32 51 52 48 58 62 62 66 66 65 61 64 57 64
14 12 6 8 14 10 11 13 10 9 6 2 4 6 6 7 6 6 4 4 4 5 5 4 3 5 62 99 85 82 37 14 37 38 39 42 38 44 49 57 60 63 67 61
12 4 6 9 12 8 9 10 10 9 7 2 8 10 9 5 5 6 2 2 1 7 10 12 8 21 52 105 112 104 99 63 11 16 19 19 27 35 31 22 27 26 38 50
18 9 13 12 14 12 11 10 14 8 9 18 13 19 11 12 7 6 4 8 7 12 23 11 12 24 90 97 99 109 106 100 85 60 31 8 28 37 60 87 80 87 67 71
22 13 9 12 16 16 12 13 8 14 26 17 42 17 14 9 12 7 9 17 12 5 10 8 15 57 79 86 89 94 108 115 119 122 114 103 91 90 84 84 81 82 85 84
11 13 15 11 10 12 5 13 18 28 36 47 35 23 11 11 8 8 14 11 10 13 12 12 21 64 70 71 70 80 92 100 99 105 104 103 102 102 94 82 94 95 96 86
13 15 11 12 15 22 23 28 25 27 32 28 20 9 24 14 9 11 11 11 12 13 12 12 51 63 62 63 66 71 72 78 94 93 85 81 82 83 81 73 70 79 81 78
15 19 14 26 21 35 44 43 41 40 33 6 9 11 11 16 9 15 14 10 12 10 17 47 49 54 52 54 65 72 75 77 69 70 76 80 67 74 76 72 68 68 67 71
10 13 23 24 22 31 37 43 45 36 37 11 10 12 9 8 8 9 7 9 8 29 31 32 37 37 41 45 52 65 67 71 72 70 66 65 64 66 68 70 64 62 62 60
Wind_Direction_500mb
357 354 352 353 354 356 3 360 325 340 356 307 344 351 330 317 321 339 306 281 277 300 306 286 260 139 38 349 274 219 218 236 203 203 198 211 203 205 201 214 210 239 278 261
0 355 349 351 355 358 357 345 316 341 4 7 347 340 319 315 339 358 350 311 344 300 289 272 295 56 46 2 12 24 168 223 212 187 202 204 217 202 209 217 229 211 220 214
357 356 352 346 352 357 1 343 324 349 332 2 336 342 328 331 350 333 344 334 322 317 256 243 274 318 32 352 9 328 262 245 223 214 211 199 213 209 214 212 222 225 211 234
354 352 349 344 344 353 8 357 4 341 315 330 331 314 294 313 346 341 319 83 4 330 283 270 255 315 304 256 3 335 318 221 237 249 288 287 238 215 210 218 222 227 228 214
347 344 342 341 335 342 353 321 334 307 301 296 294 310 311 327 335 333 325 2 326 313 316 310 331 330 314 318 328 331 336 198 254 245 217 226 239 231 240 235 225 233 240 246
338 336 336 330 327 329 296 277 288 273 277 292 298 312 318 310 313 308 279 325 316 311 328 283 294 293 282 279 291 305 289 283 237 229 212 240 243 224 220 227 232 238 236 243
331 329 328 324 311 312 284 276 263 243 267 278 288 293 293 296 304 287 302 309 303 324 310 299 278 253 252 259 252 237 270 241 256 248 186 236 246 214 209 224 229 228 245 253
326 324 323 318 314 291 291 276 251 232 254 263 289 291 303 297 288 282 299 306 315 302 303 288 275 206 215 229 232 221 215 254 245 236 226 281 213 163 217 216 229 233 247 253
325 322 320 318 312 300 284 280 268 233 255 235 276 304 298 294 294 292 316 293 303 280 281 257 266 263 19 190 168 209 203 223 245 216 239 232 240 227 202 290 258 255 221 243
325 323 321 319 314 304 288 274 273 224 238 257 261 265 286 284 281 273 284 284 289 238 244 250 240 249 303 244 227 172 192 208 223 228 249 248 262 87 317 194 75 57 132 306
326 325 324 322 317 313 303 283 268 240 238 255 257 257 248 255 250 253 301 301 210 251 242 260 262 259 242 275 264 225 202 200 210 232 242 239 262 289 235 10 334 324 315 312
326 326 325 327 325 320 311 291 280 268 235 249 265 266 268 254 251 252 233 260 289 196 281 249 268 242 234 254 261 201 243 254 258 215 228 264 275 258 296 308 305 304 305 305
328 328 327 331 330 320 309 296 296 226 235 266 269 267 285 248 231 227 228 237 239 250 243 296 266 262 292 265 256 274 260 269 261 265 258 267 271 272 277 285 289 294 292 296
329 330 330 335 329 319 306 292 295 243 229 260 290 276 258 251 246 235 230 233 237 247 257 250 251 248 244 257 265 265 269 274 252 259 258 264 265 266 271 275 280 284 287 287
330 331 333 345 332 320 354 318 319 286 238 268 291 305 289 238 232 232 226 222 229 229 215 223 234 248 267 254 266 261 250 251 247 250 263 267 264 258 263 268 276 280 282 284
330 334 349 56 15 348 62 127 318 9 202 306 296 321 319 291 242 211 215 220 225 226 222 239 252 245 251 252 250 254 251 250 252 258 259 259 262 261 262 264 266 271 276 274
334 345 52 45 50 62 60 36 311 324 188 284 288 296 272 293 259 230 226 217 213 220 244 238 250 236 222 255 259 266 255 260 264 257 250 254 255 258 261 266 261 265 268 264
340 360 93 45 45 55 47 24 15 52 20 333 308 291 304 329 303 238 178 181 208 230 241 260 243 218 221 260 258 270 264 256 250 249 253 258 257 259 260 256 258 266 261 260
355 37 79 39 21 23 23 21 31 15 338 350 334 304 314 322 274 273 192 180 217 233 234 229 263 266 250 275 287 336 264 230 233 241 246 247 248 251 252 254 257 265 255 274
24 51 28 29 356 4 11 15 11 351 320 318 245 269 279 300 290 286 324 78 6 314 270 219 275 275 338 351 3 22 21 213 210 226 242 254 238 242 246 247 253 253 273 248
35 57 55 357 46 37 18 12 6 336 314 312 277 258 294 297 300 315 303 354 171 342 12 10 343 2 355 355 11 22 33 55 143 209 237 233 241 234 236 257 232 176 163 153
49 88 61 38 23 21 6 16 337 330 341 337 322 330 281 308 307 281 347 360 7 36 340 1 20 352 357 2 9 19 29 46 47 53 54 135 53 108 74 71 70 77 79 80
35 33 39 29 19 35 25 340 325 322 333 331 331 331 325 318 349 321 24 19 30 2 11 25 6 344 350 2 5 21 36 40 42 49 52 61 62 74 79 85 90 87 79 83
44 30 17 28 22 8 272 285 302 295 298 316 333 344 7 358 7 4 351 42 10 15 16 24 352 350 351 360 12 26 32 38 44 56 55 57 61 69 75 73 83 88 87 91
47 37 37 19 324 350 344 336 327 330 320 316 342 353 23 32 45 19 8 17 21 14 5 337 332 342 353 8 20 27 30 36 44 48 52 54 61 67 65 60 68 80 81 81
50 41 14 1 3 1 7 359 354 352 343 310 17 19 20 37 38 19 17 3 14 351 341 340 341 348 2 12 26 37 41 45 42 43 45 46 47 57 65 71 70 69 72 75
50 33 34 15 15 1 0 0 356 356 18 25 54 47 22 12 42 25 40 344 290 308 329 341 345 353 2 16 31 40 41 44 43 39 41 41 45 51 55 56 59 64 65 69
Wind_Speed_850mb
50 52 55 57 60 62 45 28 12 33 33 9 9 13 22 24 30 31 33 20 29 31 23 20 8 8 16 18 13 27 30 20 25 52 39 51 56 48 57 27 45 38 29 16
49 50 51 52 53 54 40 29 16 25 30 11 14 18 21 20 21 20 21 19 26 26 30 10 7 2 7 24 18 1 8 27 29 29 41 46 56 56 50 49 32 42 34 11
48 49 49 49 45 45 31 19 10 15 12 13 22 25 22 23 23 6 25 11 33 30 32 21 6 4 8 17 18 18 13 23 45 37 34 38 55 59 56 56 40 37 37 32
50 49 46 44 41 38 22 10 9 9 13 18 25 25 28 20 13 22 28 6 14 16 15 27 27 10 21 5 17 10 12 28 14 27 2 9 28 55 60 61 55 51 38 42
51 51 48 43 40 35 12 14 10 10 31 20 22 16 20 22 23 22 19 12 29 20 8 19 16 18 14 10 12 13 13 9 12 29 19 15 19 25 31 51 57 54 52 45
54 53 50 44 35 34 13 11 14 10 16 18 17 14 19 29 27 14 14 28 31 27 18 26 37 36 35 30 22 15 12 10 13 29 25 20 30 44 41 37 36 36 46 34
59 57 54 49 36 37 32 22 17 11 11 12 21 29 34 26 27 25 36 33 30 24 31 45 43 44 39 31 26 23 15 15 15 12 13 33 23 20 50 48 40 40 35 31
64 61 57 54 47 41 38 43 23 12 7 16 30 23 23 29 30 26 30 27 20 20 35 20 17 16 15 28 31 28 26 18 15 22 27 21 12 9 15 20 33 34 36 27
65 63 61 57 52 46 42 43 53 23 7 12 15 28 26 22 22 23 9 12 25 19 14 14 14 6 9 7 15 26 27 24 19 15 33 37 8 37 17 11 21 23 10 17
65 63 61 59 53 45 46 48 43 33 13 28 31 14 16 12 14 13 14 13 8 7 9 13 13 16 5 11 16 22 25 24 29 27 25 18 22 13 5 25 10 15 2 8
65 64 63 57 57 52 40 50 41 44 21 39 43 38 32 30 23 13 8 16 8 12 11 7 8 16 8 13 21 9 21 20 22 30 35 44 23 24 29 21 22 27 27 29
64 65 64 60 63 44 34 38 39 33 51 29 31 39 46 46 44 39 13 18 9 7 4 7 6 11 10 16 19 14 26 24 21 22 23 24 21 30 35 35 43 42 49 42
64 64 63 66 45 34 26 28 26 31 29 39 40 18 20 28 38 39 27 21 32 33 18 9 7 13 15 18 21 31 34 36 27 30 37 45 47 46 54 51 53 59 56 63
62 62 70 58 28 25 17 18 19 23 8 7 13 12 17 17 23 32 47 48 13 19 17 12 11 11 20 19 26 28 28 25 35 43 45 56 64 51 61 71 62 67 71 69
60 65 64 27 17 17 7 11 12 10 15 7 20 42 6 6 24 39 37 47 50 33 11 12 10 28 21 27 29 36 43 48 35 36 39 38 46 48 45 51 52 49 56 64
67 67 29 12 18 12 6 5 3 4 6 8 6 12 7 8 6 20 32 42 42 39 14 13 21 44 12 9 22 38 63 77 75 54 76 76 62 56 59 64 63 67 62 63
66 41 11 18 22 20 8 4 15 16 2 5 8 8 6 14 15 14 25 32 24 25 10 12 11 9 16 8 30 65 64 69 72 68 65 71 74 73 62 60 65 64 63 68
47 21 10 11 22 23 20 14 13 8 4 4 6 8 10 8 9 6 17 11 22 13 11 8 6 6 12 11 43 76 77 76 80 81 84 77 73 71 68 63 62 59 63 59
23 12 10 11 13 12 13 15 14 6 6 4 4 6 7 14 9 8 10 11 5 8 6 5 4 2 8 35 69 58 32 51 52 48 58 62 62 66 66 65 61 64 57 64
14 12 6 8 14 10 11 13 10 9 6 2 4 6 6 7 6 6 4 4 4 5 5 4 3 5 62 99 85 82 37 14 37 38 39 42 38 44 49 57 60 63 67 61
12 4 6 9 12 8 9 10 10 9 7 2 8 10 9 5 5 6 2 2 1 7 10 12 8 21 52 105 112 104 99 63 11 16 19 19 27 35 31 22 27 26 38 50
18 9 13 12 14 12 11 10 14 8 9 18 13 19 11 12 7 6 4 8 7 12 23 11 12 24 90 97 99 109 106 100 85 60 31 8 28 37 60 87 80 87 67 71
22 13 9 12 16 16 12 13 8 14 26 17 42 17 14 9 12 7 9 17 12 5 10 8 15 57 79 86 89 94 108 115 119 122 114 103 91 90 84 84 81 82 85 84
11 13 15 11 10 12 5 13 18 28 36 47 35 23 11 11 8 8 14 11 10 13 12 12 21 64 70 71 70 80 92 100 99 105 104 103 102 102 94 82 94 95 96 86
13 15 11 12 15 22 23 28 25 27 32 28 20 9 24 14 9 11 11 11 12 13 12 12 51 63 62 63 66 71 72 78 94 93 85 81 82 83 81 73 70 79 81 78
15 19 14 26 21 35 44 43 41 40 33 6 9 11 11 16 9 15 14 10 12 10 17 47 49 54 52 54 65 72 75 77 69 70 76 80 67 74 76 72 68 68 67 71
10 13 23 24 22 31 37 43 45 36 37 11 10 12 9 8 8 9 7 9 8 29 31 32 37 37 41 45 52 65 67 71 72 70 66 65 64 66 68 70 64 62 62 60
Wind_Direction_850mb
357 354 352 353 354 356 3 360 325 340 356 307 344 351 330 317 321 339 306 281 277 300 306 286 260 139 38 349 274 219 218 236 203 203 198 211 203 205 201 214 210 239 278 261
0 355 349 351 355 358 357 345 316 341 4 7 347 340 319 315 339 358 350 311 344 300 289 272 295 56 46 2 12 24 168 223 212 187 202 204 217 202 209 217 229 211 220 214
357 356 352 346 352 357 1 343 324 349 332 2 336 342 328 331 350 333 344 334 322 317 256 243 274 318 32 352 9 328 262 245 223 214 211 199 213 209 214 212 222 225 211 234
354 352 349 344 344 353 8 357 4 341 315 330 331 314 294 313 346 341 319 83 4 330 283 270 255 315 304 256 3 335 318 221 237 249 288 287 238 215 210 218 222 227 228 214
347 344 342 341 335 342 353 321 334 307 301 296 294 310 311 327 335 333 325 2 326 313 316 310 331 330 314 318 328 331 336 198 254 245 217 226 239 231 240 235 225 233 240 246
338 336 336 330 327 329 296 277 288 273 277 292 298 312 318 310 313 308 279 325 316 311 328 283 294 293 282 279 291 305 289 283 237 229 212 240 243 224 220 227 232 238 236 243
331 329 328 324 311 312 284 276 263 243 267 278 288 293 293 296 304 287 302 309 303 324 310 299 278 253 252 259 252 237 270 241 256 248 186 236 246 214 209 224 229 228 245 253
326 324 323 318 314 291 291 276 251 232 254 263 289 291 303 297 288 282 299 306 315 302 303 288 275 206 215 229 232 221 215 254 245 236 226 281 213 163 217 216 229 233 247 253
325 322 320 318 312 300 284 280 268 233 255 235 276 304 298 294 294 292 316 293 303 280 281 257 266 263 19 190 168 209 203 223 245 216 239 232 240 227 202 290 258 255 221 243
325 323 321 319 314 304 288 274 273 224 238 257 261 265 286 284 281 273 284 284 289 238 244 250 240 249 303 244 227 172 192 208 223 228 249 248 262 87 317 194 75 57 132 306
326 325 324 322 317 313 303 283 268 240 238 255 257 257 248 255 250 253 301 301 210 251 242 260 262 259 242 275 264 225 202 200 210 232 242 239 262 289 235 10 334 324 315 312
326 326 325 327 325 320 311 291 280 268 235 249 265 266 268 254 251 252 233 260 289 196 281 249 268 242 234 254 261 201 243 254 258 215 228 264 275 258 296 308 305 304 305 305
328 328 327 331 330 320 309 296 296 226 235 266 269 267 285 248 231 227 228 237 239 250 243 296 266 262 292 265 256 274 260 269 261 265 258 267 271 272 277 285 289 294 292 296
329 330 330 335 329 319 306 292 295 243 229 260 290 276 258 251 246 235 230 233 237 247 257 250 251 248 244 257 265 265 269 274 252 259 258 264 265 266 271 275 280 284 287 287
330 331 333 345 332 320 354 318 319 286 238 268 291 305 289 238 232 232 226 222 229 229 215 223 234 248 267 254 266 261 250 251 247 250 263 267 264 258 263 268 276 280 282 284
330 334 349 56 15 348 62 127 318 9 202 306 296 321 319 291 242 211 215 220 225 226 222 239 252 245 251 252 250 254 251 250 252 258 259 259 262 261 262 264 266 271 276 274
334 345 52 45 50 62 60 36 311 324 188 284 288 296 272 293 259 230 226 217 213 220 244 238 250 236 222 255 259 266 255 260 264 257 250 254 255 258 261 266 261 265 268 264
340 360 93 45 45 55 47 24 15 52 20 333 308 291 304 329 303 238 178 181 208 230 241 260 243 218 221 260 258 270 264 256 250 249 253 258 257 259 260 256 258 266 261 260
355 37 79 39 21 23 23 21 31 15 338 350 334 304 314 322 274 273 192 180 217 233 234 229 263 266 250 275 287 336 264 230 233 241 246 247 248 251 252 254 257 265 255 274
24 51 28 29 356 4 11 15 11 351 320 318 245 269 279 300 290 286 324 78 6 314 270 219 275 275 338 351 3 22 21 213 210 226 242 254 238 242 246 247 253 253 273 248
35 57 55 357 46 37 18 12 6 336 314 312 277 258 294 297 300 315 303 354 171 342 12 10 343 2 355 355 11 22 33 55 143 209 237 233 241 234 236 257 232 176 163 153
49 88 61 38 23 21 6 16 337 330 341 337 322 330 281 308 307 281 347 360 7 36 340 1 20 352 357 2 9 19 29 46 47 53 54 135 53 108 74 71 70 77 79 80
35 33 39 29 19 35 25 340 325 322 333 331 331 331 325 318 349 321 24 19 30 2 11 25 6 344 350 2 5 21 36 40 42 49 52 61 62 74 79 85 90 87 79 83
44 30 17 28 22 8 272 285 302 295 298 316 333 344 7 358 7 4 351 42 10 15 16 24 352 350 351 360 12 26 32 38 44 56 55 57 61 69 75 73 83 88 87 91
47 37 37 19 324 350 344 336 327 330 320 316 342 353 23 32 45 19 8 17 21 14 5 337 332 342 353 8 20 27 30 36 44 48 52 54 61 67 65 60 68 80 81 81
50 41 14 1 3 1 7 359 354 352 343 310 17 19 20 37 38 19 17 3 14 351 341 340 341 348 2 12 26 37 41 45 42 43 45 46 47 57 65 71 70 69 72 75
50 33 34 15 15 1 0 0 356 356 18 25 54 47 22 12 42 25 40 344 290 308 329 341 345 353 2 16 31 40 41 44 43 39 41 41 45 51 55 56 59 64 65 69